#timestamp,LO_Frequency,Hit,StdDev 
1611802815.1,286046998.0,N
1611802835.8,286046995.0,Y
1611802855.7,286046996.7,P
1611802875.5,286046996.6,P
1611802895.4,286046997.1,P
1611802915.2,286046999.4,N
1611802935.0,286047000.7,N
1611802935.9,286047000.7,N
1611802955.8,286046999.4,N
1611802975.6,286046999.3,N
1611802995.5,286046998.9,N
1611803015.3,286046998.9,N
1611803035.1,286046996.9,N
1611803055.9,286046999.5,N
1611803075.7,286046999.2,N
1611803095.5,286046999.3,N
1611803115.4,286046997.8,N
1611803135.2,286046996.6,N
1611803155.1,286046997.4,N
1611803156.0,286046997.4,N
1611803175.8,286046997.5,N
1611803195.6,286046999.2,N
1611803215.5,286046998.7,N
1611803235.3,286046998.1,N
1611803255.2,286046999.1,N
1611803275.9,286046999.3,N
1611803295.7,286047001.2,N
1611803315.6,286047002.8,N
1611803335.4,286046999.8,N
1611803355.2,286047002.3,N
1611803375.1,286047002.5,N
1611803376.0,286047002.5,N
1611803395.8,286046999.9,N
1611803415.7,286047002.7,N
1611803435.5,286047002.5,N
1611803455.3,286047002.6,N
1611803475.2,286046998.7,N
1611803495.0,286047002.3,N
1611803495.9,286047002.3,N
1611803515.8,286047001.7,N
1611803535.6,286047002.8,N
1611803555.4,286047000.6,N
1611803575.3,286047000.1,N
1611803595.1,286047000.9,N
1611803615.8,286046998.1,N
1611803635.7,286046999.9,N
1611803655.5,286047000.1,N
1611803675.4,286047004.0,N
1611803695.2,286047001.3,N
1611803715.0,286047004.3,N
1611803715.9,286047004.3,N
1611803735.8,286047001.3,N
1611803755.6,286047001.3,N
1611803775.5,286047004.2,N
1611803795.3,286047003.2,N
1611803815.1,286047005.5,Y
1611803835.9,286047003.9,P
1611803855.7,286047004.3,P
1611803875.5,286047004.1,P
1611803895.4,286047002.5,N
1611803915.2,286047000.5,N
1611803935.1,286047000.8,N
1611803936.0,286047000.8,N
1611803955.8,286046998.2,N
1611803975.6,286046998.4,N
1611803995.5,286047001.1,N
1611804015.3,286046998.3,N
1611804035.2,286047001.1,N
1611804055.9,286046998.1,N
1611804075.7,286046998.9,N
1611804095.6,286046998.2,N
1611804115.4,286047000.6,N
1611804135.3,286047000.8,N
1611804155.1,286046998.7,N
1611804156.0,286046998.7,N
1611804175.8,286047000.7,N
1611804195.7,286046998.1,N
1611804215.5,286046999.6,N
1611804235.3,286047000.5,N
1611804255.2,286047000.4,N
1611804275.0,286047002.4,N
1611804275.9,286047002.4,N
1611804295.8,286047002.6,N
1611804315.6,286047000.9,N
1611804335.4,286047000.5,N
1611804355.3,286046998.1,N
1611804375.1,286046998.6,N
1611804395.9,286046999.9,N
1611804415.7,286047001.9,N
1611804435.5,286047002.0,N
1611804455.4,286047001.4,N
1611804475.2,286047004.0,N
1611804495.0,286047001.7,N
1611804495.9,286047001.7,N
1611804515.8,286047001.3,N
1611804535.6,286047005.2,Y
1611804555.5,286047003.0,P
1611804575.3,286047006.0,P
1611804595.1,286047004.3,N
1611804615.9,286047004.4,N
1611804635.7,286047002.5,N
1611804655.6,286047002.1,N
1611804675.4,286047001.8,N
1611804695.2,286047004.2,N
1611804715.1,286047001.5,N
1611804716.0,286047001.5,N
1611804735.8,286047003.7,N
1611804755.6,286047002.6,N
1611804775.5,286047002.6,N
1611804795.3,286047002.3,N
1611804815.2,286047000.2,N
1611804835.9,286046999.8,N
1611804855.7,286047000.4,N
1611804875.6,286046999.7,N
1611804895.4,286047000.3,N
1611804915.3,286047002.7,N
1611804935.1,286047000.0,N
1611804936.0,286047000.0,N
1611804955.8,286046999.9,N
1611804975.7,286046999.7,N
1611804995.5,286047002.8,N
1611805015.4,286047000.6,N
1611805035.2,286046998.5,N
1611805055.0,286047000.6,N
1611805055.9,286047000.6,N
1611805075.8,286047000.6,N
1611805095.6,286046998.2,N
1611805115.4,286047000.8,N
1611805135.3,286047000.3,N
1611805155.1,286046998.5,N
1611805175.9,286046998.1,N
1611805195.7,286046998.2,N
1611805215.5,286047000.6,N
1611805235.4,286047001.1,N
1611805255.2,286046998.3,N
1611805275.0,286047002.8,N
1611805276.0,286047002.8,N
1611805295.8,286047002.2,N
1611805315.6,286047000.2,N
1611805335.5,286047002.7,N
1611805355.3,286047001.5,N
1611805375.1,286047002.6,N
1611805395.9,286047000.1,N
1611805415.7,286047002.3,N
1611805435.6,286047000.5,N
1611805455.4,286047002.6,N
1611805475.2,286047002.2,N
1611805495.1,286047002.8,N
1611805496.0,286047002.8,N
1611805515.8,286047002.0,N
1611805535.7,286047002.6,N
1611805555.5,286047002.3,N
1611805575.3,286046999.8,N
1611805595.2,286047000.0,N
1611805615.0,286046998.4,N
1611805615.9,286046998.4,N
1611805635.7,286047000.9,N
1611805655.6,286047000.7,N
1611805675.4,286046998.6,N
1611805695.3,286046998.9,N
1611805715.1,286047001.0,N
1611805716.0,286047001.0,N
1611805735.8,286046998.1,N
1611805755.7,286046999.0,N
1611805775.5,286046999.2,N
1611805795.4,286046998.7,N
1611805815.2,286047000.4,N
1611805865.0,286047002.7,E
1611805875.9,286047000.7,N
1611805895.7,286047000.9,P
1611805915.5,286046998.1,P
1611805935.4,286047000.0,N
1611805955.2,286047002.2,N
1611805975.1,286047000.1,N
1611805976.0,286047000.1,N
1611805995.8,286047000.4,N
1611806015.6,286046998.2,N
1611806035.5,286047001.2,N
1611806055.3,286047000.2,N
1611806075.2,286046999.9,N
1611806095.9,286047002.7,N
1611806115.7,286047002.5,N
1611806135.6,286047001.4,N
1611806155.4,286047003.0,N
1611806175.2,286047003.1,N
1611806195.1,286047003.7,N
1611806196.0,286047003.7,N
1611806215.8,286047004.4,N
1611806235.7,286047002.1,N
1611806255.5,286047000.4,N
1611806275.3,286046998.2,N
1611806295.2,286046998.7,N
1611806315.0,286046998.3,N
1611806315.9,286046998.3,N
1611806335.8,286046999.4,N
1611806355.6,286046999.3,N
1611806375.4,286046996.7,N
1611806395.3,286046996.8,N
